ORSTED

Satellite information

Favourite Embed

Satellite Type and Status

PAYLOADIN ORBIT

Key statistics

Satellite ORSTED at a glance.

Uptime

9569

Days in orbit

Revolutions

≈ 14.5

Per day

Orbit

SSO

Sun Synchronous Orbit

Inclination

96.4

Latest

Satellite identification and parameters

Extended collection of information and parameters for ORSTED.

Object identification

Identified? True

Debris? False

Object name: ORSTED

International designator: 1999-008B

Object number (NORAD): 25635

Object ID (CCSDS): 25635

Country: DENMARK (DEN)

Current information (Y/N): Y

RCS size: MEDIUM

Orbital parameters

Period: 99.237 minutes

Inclination: 96.4457 deg

SMA: 7100.293 km

Apoapsis: 817.47 km

Periapsis: 626.846 km

RAAN: 121.7352 deg

Eccentricy: 0.0134237

Argument of periapsis: 53.9313 deg

Mean anomaly: 307.4233 deg

Mean motion: 14.5107004 rev/day

Mean motion (dot): 0.00001365 rev/day2

B* drag term: 0.00031381 1/REarth

Two-line elements (TLE)

Creation date: May 6, 2025, 3:54 a.m.

Reference frame: TEME

Reference center: EARTH

Epoch: May 5, 2025, 6:03 p.m. UTC

TLE line 0: 0 ORSTED

TLE line 1: 1 25635U 99008B 25125.75226415 .00001365 00000-0 31381-3 0 9998

TLE line 2: 2 25635 96.4457 121.7352 0134237 53.9313 307.4233 14.51070040382864

Live tracking on map

Real-time ground track for satellite ORSTED.

In-orbit conjunctions

A list of the most updated potential collisions computed for object ORSTED.

Target Orbit TCA Probability of collision Miss distance Type
NOAA 16 DEB SSO 2025-03-30 07:43:02 0.0006707502 113.0 (m) DEBRIS
SCOUT G-1 R/B LEO 2025-03-29 18:34:59 0.0001172583 938.0 (m) ROCKET BODY
FENGYUN 1C DEB SSO 2024-12-17 21:00:33 0.0002619161 491.0 (m) DEBRIS
NOAA 16 DEB SSO 2024-10-13 23:35:05 0.0001416064 899.0 (m) DEBRIS

Associated space launch

ARGOS (Advanced Research & Global Observation Satellite) is a testbed and demonstration program for advanced remote sensing technologies for the US Air Force's Space Test Program (STP). ARGOS's primary objective is to fly and operate advanced payloads that include two technology demonstrations and seven experiment payloads for global and celestial observation. ARGOS also has a goal of three years of on orbit operations to demonstrate and collect science data for the Earth's global environment and top priority military space programs.

ORSTED was lifted into orbit during the mission ‘Delta II | ARGOS’, on board a Delta II space rocket.

The launch took place on Feb. 23, 1999, 10:29 a.m. from Space Launch Complex 2W.

For more information about the launch, click the button.

Launch to space Delta II | ARGOS
Delta II | ARGOS

Agency: N/A

Status: Launch Successful

Launch date: Feb. 23, 1999, 10:29 a.m. UTC

Rocket: Delta II

Launch pad: Space Launch Complex 2W

Location: Vandenberg SFB, CA, USA

...

Latest news about this satellite

There are no fresh news available about this satellite. Check back as we update our databases every day.


Newsletter sign-up

Weekly statistics, charts and insights to help you stay on top of the space industry.